Location: Unspecified
(0.0000°N, 0.0000°E)
Time: 01:04:57
(UTC+00:00)

CZ-3B DEB - Pass Details

Date: 17 February 2026
Orbit: 1033 x 41494 km, 26.9° (Epoch: 29 July)

Event Time Altitude Azimuth Distance (km) Brightness Sun altitude
Rises 20:24:02 0° 242° (WSW) 14,464 ? -31.8°
Reaches altitude 10° 20:35:05 10° 239° (WSW) 16,143 ? -34.4°
Maximum altitude 22:24:34 35° 236° (WSW) 32,389 ? -60.4°
Drops below altitude 10° 02:24:42 10° 255° (WSW) 46,990 ? -55.5°
Sets 03:32:15 0° 258° (WSW) 46,589 ? -39.4°
